East Hartford, CT

8:48 AM EST on February 22, 2017 (GMT -0500)
Hartford-brainard

Weather History for KHFD - February, 2017

Change the Weather History Date:

Friday, February 17, 2017

  Actual Average Record
Temperature  
Mean Temperature 32 °F -  
Max Temperature 39 °F 37 °F 57 °F (2011)
Min Temperature 25 °F 17 °F -6 °F (1922)
Degree Days  
Heating Degree Days 33    
Moisture  
Dew Point 15 °F    
Average Humidity 53    
Maximum Humidity 69    
Minimum Humidity 36    
Precipitation  
Precipitation 0.00 in - - ()
Sea Level Pressure  
Sea Level Pressure 29.79 in    
Wind  
Wind Speed 9 mph (WNW)    
Max Wind Speed 16 mph    
Max Gust Speed 24 mph    
Visibility 10 miles    
Events      
Averages and records for this station are not official NWS values.
T = Trace of Precipitation, MM = Missing Value Source: NWS Daily Summary

Daily Weather History Graph

Daily Weather History Graph

Search for Another Location

Airport or City:

Trip Planner

Search our weather history database for the weather conditions in past years. The results will help you decide how hot, cold, wet, or windy it might be!

Date:

Astronomy

Feb. 17, 2017 Rise Set
Actual Time 6:42 AM EST 5:26 PM EST
Civil Twilight 6:14 AM EST 5:55 PM EST
Nautical Twilight 5:42 AM EST 6:27 PM EST
Astronomical Twilight 5:09 AM EST 6:59 PM EST
Moon No Moon Rise 10:16 AM EST (2/17)
Length of Visible Light 11h 40m
Length of Day
10h 43m
Waning Gibbous, 60% of the Moon is Illuminated
Feb 17
Waning Gibbous
Feb 18
Last Quarter
Feb 26
New
Mar 5
First Quarter
Mar 12
Full

Hourly Weather History & Observations

Time (EST) Temp. Windchill Dew Point Humidity Pressure Visibility Wind Dir Wind Speed Gust Speed Precip Events Conditions
12:53 AM 26.1 °F 18.4 °F 14.0 °F 60% 29.73 in 10.0 mi NW 6.9 mph - N/A   Clear
1:53 AM 26.1 °F 13.6 °F 14.0 °F 60% 29.73 in 10.0 mi NW 16.1 mph 24.2 mph N/A   Partly Cloudy
2:53 AM 26.1 °F 18.4 °F 15.1 °F 63% 29.73 in 10.0 mi West 6.9 mph - N/A   Scattered Clouds
3:53 AM 26.1 °F 19.4 °F 15.1 °F 63% 29.73 in 10.0 mi WNW 5.8 mph - N/A   Clear
4:53 AM 25.0 °F 18.1 °F 15.1 °F 66% 29.75 in 10.0 mi WNW 5.8 mph - N/A   Clear
5:53 AM 26.1 °F 17.6 °F 14.0 °F 60% 29.76 in 10.0 mi WNW 8.1 mph - N/A   Clear
6:53 AM 25.0 °F 17.1 °F 14.0 °F 63% 29.78 in 10.0 mi NW 6.9 mph - N/A   Clear
7:53 AM 27.0 °F 16.1 °F 14.0 °F 58% 29.80 in 10.0 mi NW 12.7 mph 20.7 mph N/A   Clear
8:53 AM 28.9 °F 19.8 °F 15.1 °F 56% 29.81 in 10.0 mi NNW 10.4 mph - N/A   Clear
9:53 AM 30.9 °F 21.7 °F 15.1 °F 52% 29.81 in 10.0 mi WNW 11.5 mph 20.7 mph N/A   Clear
10:53 AM 33.1 °F 23.4 °F 15.1 °F 48% 29.79 in 10.0 mi WNW 13.8 mph 20.7 mph N/A   Clear
11:53 AM 35.1 °F 27.9 °F 15.1 °F 44% 29.77 in 10.0 mi NW 9.2 mph - N/A   Clear
12:53 PM 37.0 °F 28.9 °F 15.1 °F 41% 29.77 in 10.0 mi WNW 12.7 mph - N/A   Clear
1:53 PM 37.9 °F 29.2 °F 15.1 °F 39% 29.76 in 10.0 mi NNW 15.0 mph 23.0 mph N/A   Clear
2:53 PM 37.9 °F 30.5 °F 15.1 °F 39% 29.75 in 10.0 mi NNW 11.5 mph - N/A   Clear
3:53 PM 39.0 °F 31.8 °F 14.0 °F 36% 29.77 in 10.0 mi NW 11.5 mph - N/A   Clear
4:53 PM 37.0 °F 30.4 °F 15.1 °F 41% 29.79 in 10.0 mi NW 9.2 mph - N/A   Clear
5:53 PM 35.1 °F 31.0 °F 15.1 °F 44% 29.82 in 10.0 mi NW 4.6 mph - N/A   Clear
6:53 PM 34.0 °F 28.0 °F 15.1 °F 46% 29.84 in 10.0 mi WNW 6.9 mph - N/A   Clear
7:53 PM 33.1 °F 27.7 °F 15.1 °F 48% 29.84 in 10.0 mi West 5.8 mph - N/A   Clear
8:53 PM 30.9 °F 24.3 °F 15.1 °F 52% 29.86 in 10.0 mi West 6.9 mph - N/A   Clear
9:53 PM 32.0 °F 27.5 °F 14.0 °F 48% 29.87 in 10.0 mi West 4.6 mph - N/A   Clear
10:53 PM 26.1 °F - 17.1 °F 69% 29.87 in 10.0 mi Calm Calm - N/A   Clear
11:53 PM 26.1 °F - 17.1 °F 69% 29.88 in 10.0 mi Calm Calm - N/A   Clear